GW3668 Weather Reports


Display with metric or nautical units.
time (UTC)temp
F
wind
direction
speed
MPH
gust
MPH
rain 1hr
in
rain 24hr
in
rain mn
in
humidity
%
barometer
mb
20260505073425 47 144 2.0 2.0 0.00 0.00 0.00 97 1013.3
20260505072921 48 154 2.0 2.0 0.00 0.00 0.00 97 1013.3
20260505072417 48 141 1.0 1.0 0.00 0.00 0.00 97 1013.3
20260505071914 48 117 1.0 2.0 0.00 0.00 0.00 97 1013.1
20260505071410 48 124 1.0 2.0 0.00 0.00 0.00 96 1013.2
20260505070908 48 130 0.0 1.0 0.00 0.00 0.00 96 1013.3
20260505070404 49 98 2.0 2.0 0.00 0.00 0.00 96 1013.2
20260505065900 49 110 2.0 2.0 0.00 0.00 0.00 96 1012.9
20260505065357 49 69 0.0 0.0 0.00 0.00 0.00 96 1012.8
20260505064854 49 137 1.0 3.0 0.00 0.00 0.00 96 1013.0
20260505064351 49 115 1.0 2.0 0.00 0.00 0.00 95 1012.9
20260505063850 49 114 1.0 2.0 0.00 0.00 0.00 95 1012.7
20260505063345 49 113 0.0 2.0 0.00 0.00 0.00 95 1012.9
20260505062842 50 76 0.0 2.0 0.00 0.00 0.00 95 1012.8
20260505062339 50 120 2.0 2.0 0.00 0.00 0.00 95 1012.8
20260505061836 50 130 3.0 3.0 0.00 0.00 0.00 94 1012.6
20260505061334 50 106 1.0 2.0 0.00 0.00 0.00 94 1012.7
20260505060831 50 130 2.0 2.0 0.00 0.00 0.00 94 1012.6
20260505060328 51 224 0.0 1.0 0.00 0.00 0.00 93 1012.6
20260505055824 51 92 2.0 2.0 0.00 0.00 0.00 93 1012.6
20260505055320 51 79 2.0 2.0 0.00 0.00 0.00 93 1012.3
20260505054818 51 108 2.0 2.0 0.00 0.00 0.00 92 1012.3
20260505054315 51 80 2.0 2.0 0.00 0.00 0.00 92 1012.3
20260505053813 51 113 1.0 1.0 0.00 0.00 0.00 92 1012.3
20260505053310 52 126 2.0 2.0 0.00 0.00 0.00 91 1012.2
20260505052806 52 38 0.0 2.0 0.00 0.00 0.00 91 1012.1
20260505052304 52 89 0.0 1.0 0.00 0.00 0.00 90 1012.0
20260505051800 52 107 1.0 3.0 0.00 0.00 0.00 90 1012.0
20260505051258 53 22 0.0 2.0 0.00 0.00 0.00 89 1012.1
20260505050756 53 116 2.0 2.0 0.00 0.00 0.00 89 1011.9
20260505050254 53 99 2.0 2.0 0.00 0.00 0.00 88 1012.0
20260505041728 55 63 2.0 3.0 0.00 0.00 0.00 83 1011.5
20260505041226 56 57 2.0 2.0 0.00 0.00 0.00 83 1011.2
20260505040723 56 43 2.0 2.0 0.00 0.00 0.00 82 1011.4
20260505040220 57 34 1.0 2.0 0.00 0.00 0.00 81 1011.4
20260505035717 57 36 0.0 3.0 0.00 0.00 0.00 81 1011.6
20260505035213 57 43 2.0 2.0 0.00 0.00 0.00 82 1011.2
20260505034710 58 93 1.0 2.0 0.00 0.00 0.00 81 1011.2
20260505034207 58 63 2.0 2.0 0.00 0.00 0.00 81 1011.2
20260505033703 59 227 1.0 2.0 0.00 0.00 0.00 80 1011.2
20260505033201 59 145 0.0 1.0 0.00 0.00 0.00 80 1011.1
20260505032659 60 51 0.0 1.0 0.00 0.00 0.00 79 1011.2
20260505032155 60 243 0.0 0.0 0.00 0.00 0.00 77 1011.1
20260505031652 61 103 0.0 2.0 0.00 0.00 0.00 74 1011.1
20260505031149 62 105 2.0 4.0 0.00 0.00 0.00 71 1011.0
20260505030646 62 136 3.0 4.0 0.00 0.00 0.00 72 1011.0
20260505030141 63 44 0.0 3.0 0.00 0.00 0.00 71 1011.0
20260505025637 63 36 1.0 2.0 0.00 0.00 0.00 68 1011.1
20260505025136 64 56 2.0 2.0 0.00 0.00 0.00 67 1011.0
20260505024633 65 102 1.0 2.0 0.00 0.00 0.00 65 1011.1
20260505024130 65 48 1.0 3.0 0.00 0.00 0.00 66 1011.1
20260505023628 66 37 2.0 2.0 0.00 0.00 0.00 63 1011.0
20260505023125 66 37 2.0 3.0 0.00 0.00 0.00 64 1010.9
20260505022622 66 50 1.0 2.0 0.00 0.00 0.00 63 1011.0
20260505022119 67 9 2.0 2.0 0.00 0.00 0.00 62 1010.7
20260505021616 67 64 1.0 2.0 0.00 0.00 0.00 61 1010.8
20260505021113 67 45 2.0 2.0 0.00 0.00 0.00 61 1010.8
20260505020608 67 59 1.0 2.0 0.00 0.00 0.00 60 1011.2
20260505020105 68 42 2.0 3.0 0.00 0.00 0.00 59 1011.2
20260505015602 69 348 0.0 2.0 0.00 0.00 0.00 58 1011.1
20260505015058 70 188 0.0 4.0 0.00 0.00 0.00 59 1011.2
20260505014555 70 333 0.0 2.0 0.00 0.00 0.00 56 1011.2
20260505014052 69 40 2.0 2.0 0.00 0.00 0.00 57 1011.2
20260505013549 69 34 1.0 2.0 0.00 0.00 0.00 57 1011.2
20260505013047 70 39 1.0 2.0 0.00 0.00 0.00 55 1011.2
20260505012545 70 0 0.0 2.0 0.00 0.00 0.00 55 1011.1
20260505012042 70 2 0.0 3.0 0.00 0.00 0.00 55 1011.2
20260505011537 72 59 0.0 3.0 0.00 0.00 0.00 53 1011.5
20260505011035 72 357 1.0 3.0 0.00 0.00 0.00 54 1011.6
20260505010530 72 212 0.0 1.0 0.00 0.00 0.00 55 1011.3
20260505010027 70 233 2.0 2.0 0.00 0.00 0.00 57 1011.5
20260505005523 71 72 1.0 3.0 0.00 0.00 0.00 55 1011.5
20260505005021 71 15 2.0 3.0 0.00 0.00 0.00 56 1011.3
20260505004517 72 32 3.0 3.0 0.00 0.00 0.00 56 1011.1
20260505004014 71 111 6.0 6.0 0.00 0.00 0.00 55 1011.0
20260505003511 73 38 3.0 3.0 0.00 0.00 0.00 54 1011.0
20260505003009 73 30 1.0 2.0 0.00 0.00 0.00 54 1011.3
20260505002504 73 27 2.0 2.0 0.00 0.00 0.00 54 1011.1
20260505002003 73 45 3.0 5.0 0.00 0.00 0.00 53 1011.2
20260505001500 73 77 2.0 3.0 0.00 0.00 0.00 53 1011.1
20260505000956 72 40 2.0 4.0 0.00 0.00 0.00 54 1011.1
20260505000454 73 26 2.0 4.0 0.00 0.00 0.00 53 1011.3
20260504235951 73 79 3.0 3.0 0.00 0.00 0.00 52 1011.1
20260504235448 73 359 2.0 2.0 0.00 0.00 0.00 52 1011.4
20260504234945 74 271 2.0 3.0 0.00 0.00 0.00 55 1011.3
20260504234442 74 294 2.0 2.0 0.00 0.00 0.00 55 1011.4
20260504233938 74 331 1.0 2.0 0.00 0.00 0.00 55 1011.5
20260504233434 73 107 3.0 3.0 0.00 0.00 0.00 52 1011.4
20260504232931 73 49 4.0 5.0 0.00 0.00 0.00 51 1011.5
20260504232428 74 64 1.0 3.0 0.00 0.00 0.00 50 1011.3
20260504231925 75 340 2.0 4.0 0.00 0.00 0.00 49 1011.5
20260504231422 74 103 3.0 3.0 0.00 0.00 0.00 52 1011.3
20260504230918 75 245 6.0 6.0 0.00 0.00 0.00 48 1011.4
20260504230415 74 132 2.0 3.0 0.00 0.00 0.00 48 1011.6
20260504225914 74 142 0.0 2.0 0.00 0.00 0.00 49 1011.5
20260504225410 73 46 3.0 4.0 0.00 0.00 0.00 51 1011.6
20260504224908 73 22 2.0 4.0 0.00 0.00 0.00 51 1011.7
20260504224404 73 41 3.0 4.0 0.00 0.00 0.00 50 1011.7
20260504223902 73 231 5.0 7.0 0.00 0.00 0.00 53 1011.9
20260504223356 73 217 4.0 5.0 0.00 0.00 0.00 54 1011.6
20260504222853 73 346 2.0 7.0 0.00 0.00 0.00 53 1011.8
20260504222350 72 76 2.0 3.0 0.00 0.00 0.00 51 1011.8
20260504221849 73 343 3.0 6.0 0.00 0.00 0.00 51 1011.8
20260504221345 74 93 0.0 5.0 0.00 0.00 0.00 50 1011.8
20260504220842 73 293 4.0 6.0 0.00 0.00 0.00 53 1011.9
20260504220338 73 107 2.0 3.0 0.00 0.00 0.00 49 1011.8
20260504215836 74 329 2.0 2.0 0.00 0.00 0.00 50 1011.9
20260504215332 74 28 0.0 3.0 0.00 0.00 0.00 52 1012.0
20260504214828 75 200 4.0 5.0 0.00 0.00 0.00 50 1012.0
20260504214326 74 58 0.0 2.0 0.00 0.00 0.00 51 1012.1
20260504213822 73 30 4.0 6.0 0.00 0.00 0.00 50 1012.0
20260504213318 73 40 2.0 3.0 0.00 0.00 0.00 50 1012.1
20260504212815 75 74 3.0 4.0 0.00 0.00 0.00 48 1012.1
20260504212311 73 43 3.0 4.0 0.00 0.00 0.00 50 1012.2
20260504211809 72 54 2.0 3.0 0.00 0.00 0.00 50 1012.3
20260504211305 72 42 3.0 4.0 0.00 0.00 0.00 52 1012.4
20260504210803 74 111 1.0 3.0 0.00 0.00 0.00 50 1012.0
20260504210300 74 216 5.0 5.0 0.00 0.00 0.00 49 1012.1
20260504205757 72 92 3.0 6.0 0.00 0.00 0.00 52 1012.1
20260504205254 73 47 0.0 3.0 0.00 0.00 0.00 51 1012.1
20260504204752 71 57 3.0 4.0 0.00 0.00 0.00 50 1012.0
20260504204251 72 62 2.0 4.0 0.00 0.00 0.00 49 1012.1
20260504203750 73 47 3.0 3.0 0.00 0.00 0.00 49 1012.0
20260504203246 73 18 2.0 3.0 0.00 0.00 0.00 49 1012.1
20260504202741 73 25 0.0 2.0 0.00 0.00 0.00 50 1011.9
20260504202239 74 314 1.0 4.0 0.00 0.00 0.00 47 1012.0
20260504201736 75 355 1.0 2.0 0.00 0.00 0.00 47 1012.0
20260504201233 75 353 3.0 3.0 0.00 0.00 0.00 46 1012.1
20260504200731 74 14 0.0 3.0 0.00 0.00 0.00 45 1012.0
20260504200226 74 347 0.0 3.0 0.00 0.00 0.00 47 1012.1
20260504195723 74 352 2.0 4.0 0.00 0.00 0.00 45 1012.2
20260504195219 74 269 4.0 7.0 0.00 0.00 0.00 52 1012.3
20260504194716 73 231 8.0 9.0 0.00 0.00 0.00 48 1012.2
20260504194212 74 237 3.0 8.0 0.00 0.00 0.00 48 1012.0
20260504193709 75 48 3.0 3.0 0.00 0.00 0.00 45 1012.0
20260504193206 76 33 2.0 3.0 0.00 0.00 0.00 44 1012.0
20260504192704 75 72 2.0 4.0 0.00 0.00 0.00 43 1012.1
20260504192202 76 105 0.0 4.0 0.00 0.00 0.00 43 1012.0
20260504191701 76 252 4.0 4.0 0.00 0.00 0.00 47 1012.2
20260504191156 75 174 3.0 8.0 0.00 0.00 0.00 41 1011.9
20260504190652 75 252 9.0 12.0 0.00 0.00 0.00 41 1011.9
20260504190148 75 233 6.0 9.0 0.00 0.00 0.00 46 1012.1